Bookmark and Share
Track history (hours):
 

Kyokuhoumaru No.12

Last reported at 2014-Apr-21 06:17 UTC. Time now 2014-Apr-21 07:30 UTC.
Position N 35°36' E 139°54'.

Length 57 m.

Type: Tanker. MMSI: 431500879.

NotesDate/timePositionNaut miles runAvg speedWind from/ knotsBaromVisibWave heightAir tempDewpointWater temp
2014-Apr-21 06:17N 35°36' E 139°54'0 0.0
2014-Apr-21 05:14N 35°36' E 139°54'0 0.0
2014-Apr-21 04:32N 35°36' E 139°54'0 0.0
2014-Apr-21 03:29N 35°36' E 139°54'0 0.1
2014-Apr-21 02:32N 35°36' E 139°54'0 0.0
2014-Apr-21 01:23N 35°36' E 139°54'0 0.0
2014-Apr-21 00:32N 35°36' E 139°54'0 0.0
2014-Apr-20 23:32N 35°36' E 139°54'0 0.0
2014-Apr-20 22:32N 35°36' E 139°54'0 0.0
2014-Apr-20 21:32N 35°36' E 139°54'0 0.0
2014-Apr-20 20:32N 35°36' E 139°54'0 0.0
2014-Apr-20 19:32N 35°36' E 139°54'0 0.0
2014-Apr-20 18:32N 35°36' E 139°54'0 0.0
2014-Apr-20 17:32N 35°36' E 139°54'0 0.0
2014-Apr-20 16:29N 35°36' E 139°54'0 0.0
2014-Apr-20 15:29N 35°36' E 139°54'0 0.0
2014-Apr-20 14:26N 35°36' E 139°54'0 0.0
2014-Apr-20 13:32N 35°36' E 139°54'0 0.0
2014-Apr-20 12:32N 35°36' E 139°54'0 0.0
2014-Apr-20 11:32N 35°36' E 139°54'0 0.0
2014-Apr-20 10:32N 35°36' E 139°54'0 0.0
2014-Apr-20 09:32N 35°36' E 139°54'0 0.0
2014-Apr-20 08:32N 35°36' E 139°54'0 0.0
2014-Apr-20 07:26N 35°36' E 139°54'0 0.0
2014-Apr-20 06:32N 35°36' E 139°54'0 0.0
2014-Apr-20 05:32N 35°36' E 139°54'0 0.0
2014-Apr-20 04:32N 35°36' E 139°54'0 0.0
2014-Apr-20 03:26N 35°36' E 139°54'0 0.0
2014-Apr-20 02:32N 35°36' E 139°54'0 0.0
2014-Apr-20 01:27N 35°36' E 139°54'0 0.0
2014-Apr-20 00:32N 35°36' E 139°54'0 0.0
2014-Apr-19 23:32N 35°36' E 139°54'0 0.0
2014-Apr-19 22:33N 35°36' E 139°54'0 0.0
2014-Apr-19 21:32N 35°36' E 139°54'0 0.0
2014-Apr-19 20:29N 35°36' E 139°54'0 0.0
2014-Apr-19 19:32N 35°36' E 139°54'0 0.0
2014-Apr-19 18:32N 35°36' E 139°54'4 4.0
2014-Apr-19 17:33N 35°32' E 139°53'10 8.8
2014-Apr-19 16:25N 35°24' E 139°46'9 8.0
2014-Apr-19 15:19N 35°15' E 139°47'7 8.7
2014-Apr-19 14:33N 35°09' E 139°45'9 9.0
2014-Apr-19 13:32N 35°02' E 139°37'223 6.6
2014-Apr-18 03:29N 34°25' E 135°09'9 9.9
2014-Apr-18 02:32N 34°31' E 135°18'4 1.2
2014-Apr-17 23:28N 34°33' E 135°22'2 0.5
2014-Apr-17 19:07N 34°32' E 135°20'0 0.0
2014-Apr-17 18:31N 34°32' E 135°20'0 0.0
2014-Apr-17 17:25N 34°32' E 135°20'0 0.0
2014-Apr-17 16:31N 34°32' E 135°20'0 0.0
2014-Apr-17 15:07N 34°32' E 135°20'0 0.0
2014-Apr-17 10:25N 34°32' E 135°20'6 1.4
2014-Apr-17 06:22N 34°34' E 135°13'  

Dump ship's entire track history

sailing weather and tide predictions

Kyokuhoumaru No.12 — JL5963 — position and weather